Waarnemingen

Advertentie
Mijn weer
Lerwick, Groot Brittannië (3005): temperatuur & dauwpunt: 17.05.2018 21:00:00 - 23.05.2018 21:00:00 (BST)Lerwick, Groot Brittannië (3005): temperatuur -20cm & temperatuur -100cm: 17.05.2018 21:00:00 - 23.05.2018 21:00:00 (BST)Lerwick, Groot Brittannië (3005): windsnelheid & windstoten: 17.05.2018 21:00:00 - 23.05.2018 21:00:00 (BST)Lerwick, Groot Brittannië (3005): windrichting: 17.05.2018 21:00:00 - 23.05.2018 21:00:00 (BST)Lerwick, Groot Brittannië (3005): luchtdruk: 17.05.2018 21:00:00 - 23.05.2018 21:00:00 (BST)Lerwick, Groot Brittannië (3005): zicht: 17.05.2018 21:00:00 - 23.05.2018 21:00:00 (BST)Lerwick, Groot Brittannië (3005): Zonneschijnduur: 17.05.2018 21:00:00 - 23.05.2018 21:00:00 (BST)Lerwick, Groot Brittannië (3005): neerslag: 17.05.2018 21:00:00 - 23.05.2018 21:00:00 (BST)
Datum & Tijd tt [°C] td [°C] tt -20cm [°C] tt -100cm [°C] ff [km/u] ff [kn] fx [km/u] fx [kn] dd ppp [hPa] vv [km] sd [min] rr [mm]
23.05.2018 21:00:00 8,2 5,4 - - 11 6 - - W 1028,6 35 54 0,0
23.05.2018 20:00:00 9,3 5,8 - - 15 8 - - W 1028,6 40 60 0,0
23.05.2018 19:00:00 10,0 6,3 - - 15 8 - - W 1028,5 29 60 0,0
23.05.2018 18:00:00 11,1 7,2 - - 15 8 - - W 1028,5 18 60 0,0
23.05.2018 17:00:00 11,6 7,4 - - 15 8 - - WZW 1028,6 29 60 0,0
23.05.2018 16:00:00 11,5 6,9 - - 8 4 - - ZW 1028,7 22 60 0,0
23.05.2018 15:00:00 11,9 7,7 - - 11 6 - - Z 1028,9 26 60 0,0
23.05.2018 14:00:00 11,8 6,9 - - 8 4 - - ZW 1028,8 20 54 0,0
23.05.2018 13:00:00 11,4 6,8 - - 9 5 - - WZW 1028,8 26 54 0,0
23.05.2018 12:00:00 11,6 6,5 - - 9 5 - - ZZW 1028,8 35 60 0,0
23.05.2018 11:00:00 10,8 3,6 - - 11 6 - - O 1028,5 14 60 0,0
23.05.2018 10:00:00 10,6 5,2 10,4 8,4 9 5 - - O 1028,5 24 60 0,0
23.05.2018 09:00:00 9,6 5,6 - - 9 5 - - ONO 1028,3 30 60 0,0
23.05.2018 08:00:00 8,7 5,3 - - 11 6 - - NO 1028,2 15 60 0,0
23.05.2018 07:00:00 7,9 5,7 - - 5 3 - - NNO 1027,9 28 60 0,0
23.05.2018 06:00:00 6,9 5,2 - - 11 6 - - NO 1027,7 25 24 0,0
23.05.2018 05:00:00 6,1 4,4 - - 11 6 - - N 1027,6 25 0 0,0
23.05.2018 04:00:00 6,0 4,3 - - 11 6 - - N 1027,7 23 0 0,0
23.05.2018 03:00:00 6,0 4,2 - - 15 8 - - NNO 1027,6 25 0 0,0
23.05.2018 02:00:00 6,0 4,0 - - 13 7 - - N 1027,8 30 0 0,0
23.05.2018 01:00:00 5,2 4,0 - - 13 7 - - N 1027,8 22 - 0,0
23.05.2018 00:00:00 5,7 4,2 - - 11 6 - - N 1028,0 25 0 0,0
22.05.2018 23:00:00 6,7 4,5 - - 18 10 - - NNO 1027,8 25 0 0,0
22.05.2018 22:00:00 7,1 4,1 - - 21 11 - - NNO 1027,8 25 0 0,0
22.05.2018 21:00:00 7,6 3,8 - - 22 12 - - NNO 1027,6 30 54 0,0
22.05.2018 20:00:00 8,5 3,8 - - 22 12 - - NO 1027,3 26 60 0,0
22.05.2018 19:00:00 8,8 4,0 - - 26 14 - - NNO 1027,4 26 60 0,0
22.05.2018 18:00:00 10,0 4,2 - - 28 15 - - NO 1027,2 40 60 0,0
22.05.2018 17:00:00 10,2 3,9 - - 28 15 - - NO 1027,6 35 60 0,0
22.05.2018 16:00:00 10,5 4,3 - - 26 14 - - NO 1027,9 35 54 0,0
22.05.2018 15:00:00 9,6 5,2 - - 26 14 - - NO 1027,7 35 6 0,0
22.05.2018 14:00:00 10,8 3,7 - - 26 14 - - NO 1027,8 35 48 0,0
22.05.2018 13:00:00 10,4 3,7 - - 29 16 - - NO 1027,6 35 0 0,0
22.05.2018 12:00:00 9,3 2,8 - - 29 16 48 26 NO 1027,5 50 0 0,0
22.05.2018 11:00:00 9,2 2,6 - - 29 16 - - NNO 1027,5 30 30 0,0
22.05.2018 10:00:00 9,0 3,9 10,5 8,2 31 17 - - NNO 1027,3 50 12 0,0
22.05.2018 09:00:00 8,8 3,3 - - 31 17 - - NNO 1027,2 26 24 0,0
22.05.2018 08:00:00 9,0 3,9 - - 29 16 - - NNO 1026,9 40 18 0,0
22.05.2018 07:00:00 7,3 3,7 - - 29 16 - - NNO 1026,9 45 0 0,0
22.05.2018 06:00:00 5,9 4,0 - - 22 12 - - N 1026,7 50 0 0,0
22.05.2018 05:00:00 6,4 4,7 - - 18 10 - - N 1026,5 50 0 0,0
22.05.2018 04:00:00 6,3 4,7 - - 21 11 - - N 1026,2 50 0 0,0
22.05.2018 03:00:00 6,6 4,3 - - 26 14 - - N 1025,5 50 0 0,0
22.05.2018 02:00:00 6,4 4,6 - - 24 13 - - N 1025,4 35 0 0,0
22.05.2018 01:00:00 6,3 4,6 - - 24 13 - - N 1024,7 50 - 0,0
22.05.2018 00:00:00 6,2 4,6 - - 28 15 - - N 1024,2 45 0 0,0
21.05.2018 23:00:00 6,3 5,2 - - 29 16 50 27 N 1023,8 35 0 0,0
21.05.2018 22:00:00 6,2 5,4 - - 35 19 48 26 N 1023,3 30 0 0,0
21.05.2018 21:00:00 6,7 6,1 - - 31 17 46 25 N 1022,2 7 0 0,8
21.05.2018 20:00:00 7,0 6,4 - - 34 18 46 25 N 1021,1 6 0 0,2
21.05.2018 19:00:00 7,2 6,6 - - 31 17 46 25 N 1019,7 9 0 0,0
21.05.2018 18:00:00 7,5 7,2 - - 29 16 - - N 1019,7 4,7 0 0,0
21.05.2018 17:00:00 8,1 7,7 - - 22 12 - - NNO 1019,3 13 0 0,0
21.05.2018 16:00:00 7,9 7,6 - - 24 13 - - N 1019,1 12 0 0,0
21.05.2018 15:00:00 8,4 8,3 - - 16 9 - - N 1019,1 3,5 0 0,2
21.05.2018 14:00:00 8,4 8,4 - - 9 5 - - Z 1019,2 1,6 0 0,0
21.05.2018 13:00:00 8,2 8,2 - - 13 7 - - Z 1019,4 0,7 0 0,2
21.05.2018 12:00:00 8,2 8,2 - - 13 7 - - Z 1019,3 0,1 0 0,0
21.05.2018 11:00:00 8,2 8,2 - - 18 10 - - Z 1019,0 0,1 0 0,2
21.05.2018 10:00:00 8,2 8,2 10,9 8,2 22 12 - - Z 1018,7 0,2 0 0,6
21.05.2018 09:00:00 8,3 8,3 - - 22 12 - - Z 1018,4 0,3 0 1,2
21.05.2018 08:00:00 8,7 8,6 - - 13 7 - - Z 1018,0 0,1 0 1,4
21.05.2018 07:00:00 8,6 8,5 - - 15 8 - - Z 1017,6 0,1 0 1,8
21.05.2018 06:00:00 8,4 8,4 - - 9 5 - - ZZO 1017,6 0,1 0 1,0
21.05.2018 05:00:00 8,6 8,5 - - 11 6 - - Z 1017,5 0,1 0 0,8
21.05.2018 04:00:00 8,7 8,6 - - 11 6 - - Z 1017,7 0,1 0 0,8
21.05.2018 03:00:00 8,5 8,4 - - 18 10 - - Z 1017,5 0,1 0 0,2
21.05.2018 02:00:00 8,6 8,3 - - 13 7 - - Z 1017,5 1,8 0 0,0
21.05.2018 01:00:00 8,8 8,3 - - 11 6 - - Z 1017,3 4,4 - 0,0
21.05.2018 00:00:00 9,2 8,6 - - 11 6 - - Z 1016,9 5 0 0,0
20.05.2018 23:00:00 8,9 8,3 - - 15 8 - - Z 1016,7 5 0 0,0
20.05.2018 22:00:00 9,2 8,4 - - 21 11 - - Z 1016,3 7 0 0,0
20.05.2018 21:00:00 9,8 8,8 - - 21 11 - - Z 1015,9 7 0 0,0
20.05.2018 20:00:00 11,7 9,0 - - 29 16 48 26 ZW 1015,4 15 0 0,0
20.05.2018 19:00:00 11,2 8,6 - - 44 24 55 30 ZW 1014,9 12 0 0,0
20.05.2018 18:00:00 10,2 8,3 - - 34 18 46 25 Z 1014,5 8 0 0,0
20.05.2018 17:00:00 11,3 8,5 - - 35 19 46 25 Z 1014,3 9 18 0,0
20.05.2018 16:00:00 10,9 8,2 - - 35 19 48 26 Z 1014,2 10 0 0,0
20.05.2018 15:00:00 11,4 8,4 - - 37 20 46 25 Z 1014,3 10 24 0,0
20.05.2018 14:00:00 12,4 9,0 - - 37 20 48 26 Z 1014,2 12 36 0,0
20.05.2018 13:00:00 11,0 8,6 - - 31 17 - - Z 1014,2 8 0 0,0
20.05.2018 12:00:00 10,4 8,2 - - 31 17 - - Z 1014,0 10 0 0,0
20.05.2018 11:00:00 11,2 8,4 - - 34 18 59 32 Z 1014,0 12 0 0,0
20.05.2018 10:00:00 13,3 8,4 11,0 8,0 48 26 61 33 ZZW 1013,9 28 0 0,0
20.05.2018 09:00:00 10,5 8,3 - - 29 16 - - Z 1013,9 15 0 0,0
20.05.2018 08:00:00 9,6 8,0 - - 22 12 - - Z 1013,5 10 0 0,0
20.05.2018 07:00:00 10,1 8,4 - - 24 13 48 26 Z 1013,3 13 0 0,0
20.05.2018 06:00:00 10,9 7,7 - - 34 18 54 29 ZZW 1013,0 16 0 0,0
20.05.2018 05:00:00 10,0 7,8 - - 29 16 - - Z 1012,6 10 0 0,0
20.05.2018 04:00:00 9,1 7,7 - - 26 14 - - Z 1012,6 12 0 0,0
20.05.2018 03:00:00 9,1 7,8 - - 31 17 - - Z 1012,8 8 0 0,0
20.05.2018 02:00:00 8,9 7,7 - - 31 17 - - Z 1013,1 8 0 0,0
20.05.2018 01:00:00 9,3 7,8 - - 28 15 - - Z 1013,7 8 - 0,0
20.05.2018 00:00:00 9,9 8,0 - - 31 17 48 26 ZZW 1014,2 10 0 0,0
19.05.2018 23:00:00 9,4 8,0 - - 31 17 - - ZZW 1014,9 12 0 0,0
19.05.2018 22:00:00 9,4 8,1 - - 34 18 - - Z 1015,0 9 0 0,0
19.05.2018 21:00:00 9,4 8,0 - - 28 15 - - Z 1015,2 14 0 0,0
19.05.2018 20:00:00 9,7 8,5 - - 29 16 - - Z 1015,8 9 0 0,0
19.05.2018 19:00:00 9,8 8,4 - - 28 15 48 26 Z 1016,4 10 54 0,0
19.05.2018 18:00:00 10,9 8,7 - - 35 19 46 25 Z 1016,9 12 60 0,0
19.05.2018 17:00:00 11,3 8,8 - - 31 17 - - Z 1017,6 12 60 0,0
19.05.2018 16:00:00 11,2 9,0 - - 34 18 - - Z 1018,1 15 60 0,0
19.05.2018 15:00:00 11,7 9,2 - - 26 14 - - Z 1018,5 15 60 0,0
19.05.2018 14:00:00 11,3 8,9 - - 29 16 - - Z 1018,9 12 60 0,0
19.05.2018 13:00:00 11,6 9,1 - - 29 16 - - Z 1019,4 18 24 0,0
19.05.2018 12:00:00 10,9 8,6 - - 29 16 - - Z 1019,8 15 0 0,0
19.05.2018 11:00:00 10,3 8,3 - - 31 17 - - Z 1020,0 15 0 0,0
19.05.2018 10:00:00 10,0 8,4 10,7 8,0 24 13 - - Z 1020,3 15 0 0,0
19.05.2018 09:00:00 9,7 8,4 - - 18 10 - - Z 1020,7 15 24 0,0
19.05.2018 08:00:00 9,6 8,6 - - 21 11 - - Z 1020,7 13 6 0,0
19.05.2018 07:00:00 8,8 8,0 - - 11 6 - - Z 1020,8 11 0 0,0
19.05.2018 06:00:00 9,0 7,2 - - 13 7 - - Z 1021,1 20 0 0,0
19.05.2018 05:00:00 8,3 7,6 - - 11 6 - - Z 1021,2 10 0 0,0
19.05.2018 04:00:00 8,6 7,3 - - 15 8 - - Z 1021,4 14 0 0,0
19.05.2018 03:00:00 9,0 7,6 - - 11 6 - - Z 1021,9 17 0 0,0
19.05.2018 02:00:00 9,1 7,7 - - 13 7 - - ZZW 1021,9 24 0 0,0
19.05.2018 01:00:00 9,2 7,5 - - 13 7 - - ZZW 1021,9 26 - 0,0
19.05.2018 00:00:00 9,7 7,1 - - 21 11 - - WZW 1022,3 35 0 0,0
18.05.2018 23:00:00 9,6 7,0 - - 24 13 - - WZW 1022,5 35 0 0,0
18.05.2018 22:00:00 8,9 6,2 - - 15 8 - - ZW 1022,4 35 0 0,0
18.05.2018 21:00:00 9,9 7,1 - - 13 7 - - Z 1022,5 30 0 0,0
18.05.2018 20:00:00 10,2 6,5 - - 16 9 - - WZW 1022,4 30 0 0,0
18.05.2018 19:00:00 9,3 7,8 - - 15 8 - - Z 1022,4 12 0 0,0
18.05.2018 18:00:00 10,7 6,8 - - 15 8 - - ZZW 1022,6 18 0 0,0
18.05.2018 17:00:00 11,6 6,4 - - 18 10 - - ZW 1022,5 23 6 0,0
18.05.2018 16:00:00 11,5 7,0 - - 26 14 - - ZW 1022,6 30 6 0,0
18.05.2018 15:00:00 12,0 7,7 - - 16 9 - - Z 1022,8 26 30 0,0
18.05.2018 14:00:00 11,9 7,9 - - 26 14 - - Z 1022,7 15 54 0,0
18.05.2018 13:00:00 11,2 7,5 - - 26 14 - - Z 1022,9 21 30 0,0
18.05.2018 12:00:00 10,3 7,5 - - 22 12 - - Z 1023,2 13 24 0,0
18.05.2018 11:00:00 9,6 7,0 - - 24 13 - - Z 1023,4 15 30 0,0
18.05.2018 10:00:00 9,3 7,3 10,9 7,9 22 12 - - Z 1023,6 15 42 0,0
18.05.2018 09:00:00 9,6 6,9 - - 22 12 - - Z 1023,9 17 60 0,0
18.05.2018 08:00:00 8,3 7,0 - - 18 10 - - Z 1024,1 20 60 0,0
18.05.2018 07:00:00 7,5 6,9 - - 15 8 - - Z 1024,2 8 60 0,0
18.05.2018 06:00:00 6,3 5,4 - - 11 6 - - Z 1024,5 12 42 0,0
18.05.2018 05:00:00 4,7 4,1 - - 11 6 - - ZW 1025,2 9 0 0,0
18.05.2018 04:00:00 5,1 5,0 - - 8 4 - - ZZW 1025,4 9 0 0,0
18.05.2018 03:00:00 3,8 3,8 - - 8 4 - - ZW 1025,6 7 0 0,0
18.05.2018 02:00:00 5,1 5,0 - - 2 1 - - Z 1026,0 8 0 0,0
18.05.2018 01:00:00 5,4 4,9 - - 4 2 - - ZZW 1026,4 0,3 - 0,0
18.05.2018 00:00:00 5,4 4,8 - - 0 0 - - N 1026,9 2,0 0 0,0
17.05.2018 23:00:00 6,2 5,2 - - 2 1 - - ZZW 1027,2 7 0 0,0
17.05.2018 22:00:00 7,4 5,7 - - 2 1 - - NO 1027,4 15 0 0,0
17.05.2018 21:00:00 8,2 5,7 - - 9 5 - - NO 1027,5 15 36 0,0

tt = temperatuur
td = dauwpunt
tt -20cm = temperatuur -20cm
tt -100cm = temperatuur -100cm
ff = windsnelheid
fx = windstoten
dd = windrichting
ppp = luchtdruk
vv = zicht
sd = Zonneschijnduur
rr = neerslag

Weerstations in de omgeving